Simultaneous Nadir Overpasses (SNOs) Predictions

Prediction of SNOs between NOAA-20 and AQUA Satellite Orbit:

Table of predicted SNOs for the next 14.0 days since TLE Epoch: 11/21/2020
Index Date (NOAA-20) Time (NOAA-20) Lat,Lon (NOAA-20) SZA (NOAA-20 ) Date (AQUA) Time (AQUA) Lat,Lon (AQUA) SZA (AQUA ) Distance(km) Time Diff (sec)
1 11/23/2020 05:56:07 75.53, -31.58 116.93 11/23/2020 05:56:59 75.52, -31.64 116.89 1.84 52
2 11/23/2020 06:46:35 -76.35, 138.49 63.99 11/23/2020 06:46:09 -76.36, 138.56 63.98 1.93 26
3 11/25/2020 22:12:55 75.87, 85.27 117.11 11/25/2020 22:13:21 75.86, 85.23 117.10 1.50 26
4 11/25/2020 23:03:24 -76.63,-104.69 63.76 11/25/2020 23:02:32 -76.64,-104.62 63.73 2.04 52
5 11/28/2020 13:41:10 -69.72, 20.28 56.12 11/28/2020 13:42:24 -69.60, 20.94 56.34 28.95 74
6 11/28/2020 14:29:43 76.24,-157.67 117.20 11/28/2020 14:29:43 76.24,-157.73 117.22 1.81 0
7 11/28/2020 15:17:31 -81.31, 59.94 72.07 11/28/2020 15:16:18 -81.80, 59.45 71.76 55.42 73
8 12/01/2020 05:56:16 -75.28, 147.64 61.26 12/01/2020 05:57:06 -75.29, 147.69 61.32 1.55 50
9 12/01/2020 06:46:30 76.66, -40.38 117.20 12/01/2020 06:46:04 76.65, -40.48 117.25 2.80 26
10 12/03/2020 22:13:02 -75.75, -95.12 61.35 12/03/2020 22:13:26 -75.75, -95.11 61.38 0.29 24
